カタログに戻る

COSMOS 1861

運用中ナビゲーションPO
NORAD 18129·PAYLOAD·🇷🇺 Russia

打ち上げ Jun 23, 1987 から Plesetsk Cosmodrome

Loading…

次のパス (今後24時間)

TLE

最新Source: Space-Track

元期: Sep 14, 2026, 02:33 UTC

1 18129U 87054A   26257.10674642  .00000029  00000-0  14751-4 0  9990
2 18129  82.9211 256.9927 0013001  69.3407 356.8527 13.73272852965747

AllMySatでCOSMOS 1861をリアルタイム追跡

Download on the App Store